TimeEDT,TemperatureF,Dew PointF,Humidity,Sea Level PressureIn,VisibilityMPH,Wind Direction,Wind SpeedMPH,Gust SpeedMPH,PrecipitationIn,Events,Conditions,WindDirDegrees,DateUTC
12:53 AM,64.9,52.0,63,30.03,10.0,North,5.8,-,N/A,,Clear,360,2012-09-10 04:53:00
1:53 AM,64.9,52.0,63,30.03,10.0,North,6.9,-,N/A,,Clear,360,2012-09-10 05:53:00
2:53 AM,64.0,52.0,65,30.02,10.0,North,6.9,-,N/A,,Clear,360,2012-09-10 06:53:00
3:53 AM,64.0,52.0,65,30.02,10.0,North,6.9,-,N/A,,Clear,360,2012-09-10 07:53:00
4:53 AM,64.9,52.0,63,30.03,10.0,North,6.9,-,N/A,,Clear,360,2012-09-10 08:53:00
5:53 AM,63.0,52.0,67,30.05,10.0,NNE,6.9,-,N/A,,Clear,20,2012-09-10 09:53:00
6:53 AM,63.0,52.0,67,30.07,10.0,North,6.9,-,N/A,,Clear,360,2012-09-10 10:53:00
7:53 AM,64.9,53.1,65,30.11,10.0,North,6.9,-,N/A,,Clear,360,2012-09-10 11:53:00
8:53 AM,70.0,54.0,57,30.12,10.0,North,9.2,-,N/A,,Clear,10,2012-09-10 12:53:00
9:53 AM,73.0,55.0,53,30.14,10.0,NE,6.9,-,N/A,,Partly Cloudy,50,2012-09-10 13:53:00
10:53 AM,75.0,53.1,46,30.14,10.0,ENE,9.2,-,N/A,,Clear,70,2012-09-10 14:53:00
11:53 AM,75.9,53.1,45,30.15,10.0,Variable,3.5,-,N/A,,Partly Cloudy,0,2012-09-10 15:53:00
12:53 PM,77.0,54.0,45,30.13,10.0,ENE,8.1,-,N/A,,Mostly Cloudy,70,2012-09-10 16:53:00
1:53 PM,77.0,54.0,45,30.12,10.0,Calm,Calm,-,N/A,,Mostly Cloudy,0,2012-09-10 17:53:00
3:53 PM,79.0,54.0,42,30.09,10.0,South,6.9,-,N/A,,Partly Cloudy,190,2012-09-10 19:53:00
4:53 PM,79.0,54.0,42,30.08,10.0,South,4.6,-,N/A,,Partly Cloudy,170,2012-09-10 20:53:00
5:53 PM,77.0,53.1,43,30.09,10.0,SSE,3.5,-,N/A,,Partly Cloudy,160,2012-09-10 21:53:00
6:53 PM,77.0,55.0,47,30.10,10.0,South,4.6,-,N/A,,Clear,170,2012-09-10 22:53:00
7:53 PM,73.0,55.9,55,30.11,10.0,South,3.5,-,N/A,,Mostly Cloudy,170,2012-09-10 23:53:00
8:53 PM,73.0,57.0,57,30.12,10.0,Calm,Calm,-,N/A,,Overcast,0,2012-09-11 00:53:00
9:53 PM,73.0,55.9,55,30.13,10.0,Calm,Calm,-,N/A,,Overcast,0,2012-09-11 01:53:00
10:53 PM,73.0,55.9,55,30.14,10.0,Calm,Calm,-,N/A,,Overcast,0,2012-09-11 02:53:00
11:53 PM,71.1,55.9,59,30.15,10.0,Calm,Calm,-,N/A,,Mostly Cloudy,0,2012-09-11 03:53:00